TimePDT,TemperatureF,Dew PointF,Humidity,Sea Level PressureIn,VisibilityMPH,Wind Direction,Wind SpeedMPH,Gust SpeedMPH,PrecipitationIn,Events,Conditions,WindDirDegrees,DateUTC
12:54 AM,50.0,46.9,89,30.04,10.0,SSW,4.6,-,N/A,,Overcast,200,2013-05-17 07:54:00
1:54 AM,50.0,46.9,89,30.03,10.0,SSE,3.5,-,N/A,,Overcast,160,2013-05-17 08:54:00
2:54 AM,51.1,46.9,86,30.03,10.0,SSW,4.6,-,N/A,,Overcast,200,2013-05-17 09:54:00
3:54 AM,50.0,46.9,89,30.03,10.0,South,4.6,-,N/A,,Overcast,180,2013-05-17 10:54:00
4:54 AM,50.0,48.2,94,30.03,10.0,Calm,Calm,-,N/A,,Overcast,0,2013-05-17 11:54:00
5:54 AM,50.0,46.9,89,30.04,10.0,Calm,Calm,-,N/A,,Overcast,0,2013-05-17 12:54:00
6:54 AM,50.0,48.0,93,30.04,10.0,SE,3.5,-,N/A,,Overcast,130,2013-05-17 13:54:00
7:54 AM,53.1,46.9,80,30.04,10.0,SSW,4.6,-,N/A,,Overcast,210,2013-05-17 14:54:00
8:54 AM,55.0,46.9,74,30.05,10.0,SSW,4.6,-,N/A,,Mostly Cloudy,200,2013-05-17 15:54:00
9:54 AM,57.0,46.9,69,30.05,10.0,SW,3.5,-,N/A,,Overcast,230,2013-05-17 16:54:00
10:54 AM,60.1,44.1,55,30.05,10.0,Calm,Calm,-,N/A,,Mostly Cloudy,0,2013-05-17 17:54:00
11:54 AM,62.6,42.8,48,30.05,10.0,West,6.9,-,N/A,,Mostly Cloudy,270,2013-05-17 18:54:00
12:54 PM,64.0,42.1,45,30.05,10.0,WSW,8.1,-,0.00,,Mostly Cloudy,250,2013-05-17 19:54:00
1:54 PM,64.9,45.0,48,30.06,10.0,West,12.7,-,N/A,,Mostly Cloudy,260,2013-05-17 20:54:00
2:54 PM,64.0,42.1,45,30.06,10.0,SW,5.8,-,N/A,,Mostly Cloudy,230,2013-05-17 21:54:00
3:54 PM,66.0,44.1,45,30.06,10.0,West,11.5,16.1,0.00,,Mostly Cloudy,260,2013-05-17 22:54:00
4:54 PM,62.6,46.4,55,30.06,10.0,WNW,8.1,-,N/A,,Mostly Cloudy,290,2013-05-17 23:54:00
5:54 PM,61.0,46.0,58,30.07,10.0,West,3.5,-,0.00,,Mostly Cloudy,280,2013-05-18 00:54:00
6:54 PM,61.0,46.0,58,30.07,10.0,Calm,Calm,-,N/A,,Mostly Cloudy,0,2013-05-18 01:54:00
7:54 PM,60.1,43.0,53,30.08,10.0,West,9.2,-,N/A,,Mostly Cloudy,260,2013-05-18 02:54:00
8:54 PM,55.0,44.1,67,30.09,10.0,WSW,4.6,-,N/A,,Mostly Cloudy,250,2013-05-18 03:54:00
9:54 PM,53.1,44.1,71,30.12,10.0,West,4.6,-,N/A,,Partly Cloudy,270,2013-05-18 04:54:00
10:54 PM,52.0,44.1,74,30.13,10.0,West,6.9,-,N/A,,Mostly Cloudy,260,2013-05-18 05:54:00
11:54 PM,52.0,45.0,77,30.14,-9999.0,West,4.6,-,N/A,,Overcast,270,2013-05-18 06:54:00